Time,TemperatureF,DewpointF,PressureIn,WindDirection,WindDirectionDegrees,WindSpeedMPH,WindSpeedGustMPH,Humidity,HourlyPrecipIn,Conditions,Clouds,dailyrainin,SolarRadiationWatts/m^2,SoftwareType,DateUTC
2013-05-03 00:11:00,29.0,12.0,-100.00,ENE,74,6.0,8.0,48,0.00,,,0.00,0.000000,,2013-05-03 06:11:00,
2013-05-03 00:21:00,29.0,12.0,-100.00,ENE,74,6.0,8.0,48,0.00,,,0.00,0.000000,,2013-05-03 06:21:00,
2013-05-03 00:32:00,29.0,12.0,-100.00,ENE,74,6.0,8.0,48,0.00,,,0.00,0.000000,,2013-05-03 06:32:00,
2013-05-03 00:42:00,29.0,12.0,-100.00,ENE,74,6.0,8.0,48,0.00,,,0.00,0.000000,,2013-05-03 06:42:00,
2013-05-03 00:51:00,29.0,12.0,-100.00,ENE,74,6.0,8.0,48,0.00,,,0.00,0.000000,,2013-05-03 06:51:00,
2013-05-03 00:52:00,28.0,11.0,-100.00,ENE,72,7.0,11.0,48,0.00,,,0.00,0.000000,,2013-05-03 06:52:00,
2013-05-03 01:21:00,28.0,11.0,-100.00,ENE,72,7.0,11.0,48,0.00,,,0.00,0.000000,,2013-05-03 07:21:00,
2013-05-03 01:31:00,28.0,11.0,-100.00,ENE,72,7.0,11.0,48,0.00,,,0.00,0.000000,,2013-05-03 07:31:00,
2013-05-03 01:42:00,28.0,11.0,-100.00,ENE,72,7.0,11.0,48,0.00,,,0.00,0.000000,,2013-05-03 07:42:00,
2013-05-03 01:52:00,27.0,10.0,-100.00,ENE,72,6.0,12.0,49,0.00,,,0.00,0.000000,,2013-05-03 07:52:00,
2013-05-03 02:11:00,27.0,10.0,-100.00,ENE,72,6.0,12.0,49,0.00,,,0.00,0.000000,,2013-05-03 08:11:00,
2013-05-03 02:21:00,27.0,10.0,-100.00,ENE,72,6.0,12.0,49,0.00,,,0.00,0.000000,,2013-05-03 08:21:00,
2013-05-03 02:31:00,27.0,10.0,-100.00,ENE,72,6.0,12.0,49,0.00,,,0.00,0.000000,,2013-05-03 08:31:00,
2013-05-03 02:42:00,27.0,10.0,-100.00,ENE,72,6.0,12.0,49,0.00,,,0.00,0.000000,,2013-05-03 08:42:00,
2013-05-03 02:52:00,27.0,10.0,-100.00,ENE,73,8.0,14.0,48,0.00,,,-99.99,0.000000,,2013-05-03 08:52:00,
2013-05-03 03:11:00,27.0,10.0,-100.00,ENE,73,8.0,14.0,48,0.00,,,-99.99,0.000000,,2013-05-03 09:11:00,
2013-05-03 03:21:00,27.0,10.0,-100.00,ENE,73,8.0,14.0,48,0.00,,,-99.99,0.000000,,2013-05-03 09:21:00,
2013-05-03 03:32:00,27.0,10.0,-100.00,ENE,73,8.0,14.0,48,0.00,,,-99.99,0.000000,,2013-05-03 09:32:00,
2013-05-03 03:42:00,27.0,10.0,-100.00,ENE,73,8.0,14.0,48,0.00,,,-99.99,0.000000,,2013-05-03 09:42:00,
2013-05-03 03:52:00,27.0,9.0,-100.00,ENE,71,8.0,13.0,47,0.00,,,0.00,0.000000,,2013-05-03 09:52:00,
2013-05-03 04:12:00,27.0,9.0,-100.00,ENE,71,8.0,13.0,47,0.00,,,0.00,0.000000,,2013-05-03 10:12:00,
2013-05-03 04:22:00,27.0,9.0,-100.00,ENE,71,8.0,13.0,47,0.00,,,0.00,0.000000,,2013-05-03 10:22:00,
2013-05-03 04:32:00,27.0,9.0,-100.00,ENE,71,8.0,13.0,47,0.00,,,0.00,0.000000,,2013-05-03 10:32:00,
2013-05-03 04:42:00,27.0,9.0,-100.00,ENE,71,8.0,13.0,47,0.00,,,0.00,0.000000,,2013-05-03 10:42:00,
2013-05-03 05:11:00,27.0,9.0,-100.00,ENE,70,4.0,10.0,46,0.00,,,0.00,0.000000,,2013-05-03 11:11:00,
2013-05-03 05:22:00,27.0,9.0,-100.00,ENE,70,4.0,10.0,46,0.00,,,0.00,0.000000,,2013-05-03 11:22:00,
2013-05-03 05:31:00,27.0,9.0,-100.00,ENE,70,4.0,10.0,46,0.00,,,0.00,0.000000,,2013-05-03 11:31:00,
2013-05-03 05:41:00,27.0,9.0,-100.00,ENE,70,4.0,10.0,46,0.00,,,0.00,0.000000,,2013-05-03 11:41:00,
2013-05-03 05:51:00,27.0,9.0,-100.00,ENE,70,4.0,10.0,46,0.00,,,0.00,0.000000,,2013-05-03 11:51:00,
2013-05-03 06:11:00,26.0,9.0,-100.00,ENE,75,5.0,10.0,47,0.00,,,0.00,0.000000,,2013-05-03 12:11:00,
2013-05-03 06:21:00,26.0,9.0,-100.00,ENE,75,5.0,10.0,47,0.00,,,0.00,0.000000,,2013-05-03 12:21:00,
2013-05-03 06:32:00,26.0,9.0,-100.00,ENE,75,5.0,10.0,47,0.00,,,0.00,0.000000,,2013-05-03 12:32:00,
2013-05-03 06:41:00,26.0,9.0,-100.00,ENE,75,5.0,10.0,47,0.00,,,0.00,0.000000,,2013-05-03 12:41:00,
2013-05-03 06:51:00,26.0,9.0,-100.00,ENE,75,5.0,10.0,47,0.00,,,0.00,0.000000,,2013-05-03 12:51:00,
2013-05-03 06:52:00,26.0,9.0,-100.00,ENE,70,5.0,9.0,47,0.00,,,0.00,9.000000,,2013-05-03 12:52:00,
2013-05-03 07:22:00,26.0,9.0,-100.00,ENE,70,5.0,9.0,47,0.00,,,0.00,9.000000,,2013-05-03 13:22:00,
2013-05-03 07:32:00,26.0,9.0,-100.00,ENE,70,5.0,9.0,47,0.00,,,0.00,9.000000,,2013-05-03 13:32:00,
2013-05-03 07:42:00,26.0,9.0,-100.00,ENE,70,5.0,9.0,47,0.00,,,0.00,9.000000,,2013-05-03 13:42:00,
2013-05-03 07:52:00,31.0,11.0,-100.00,ENE,74,4.0,11.0,42,0.00,,,0.00,79.000000,,2013-05-03 13:52:00,
2013-05-03 08:11:00,31.0,11.0,-100.00,ENE,74,4.0,11.0,42,0.00,,,0.00,79.000000,,2013-05-03 14:11:00,
2013-05-03 08:21:00,31.0,11.0,-100.00,ENE,74,4.0,11.0,42,0.00,,,0.00,79.000000,,2013-05-03 14:21:00,
2013-05-03 08:32:00,31.0,11.0,-100.00,ENE,74,4.0,11.0,42,0.00,,,0.00,79.000000,,2013-05-03 14:32:00,
2013-05-03 08:42:00,31.0,11.0,-100.00,ENE,74,4.0,11.0,42,0.00,,,0.00,79.000000,,2013-05-03 14:42:00,
2013-05-03 08:52:00,38.0,11.0,-100.00,East,83,4.0,9.0,33,0.00,,,0.00,228.000000,,2013-05-03 14:52:00,
2013-05-03 09:11:00,38.0,11.0,-100.00,East,83,4.0,9.0,33,0.00,,,0.00,228.000000,,2013-05-03 15:11:00,
2013-05-03 09:22:00,38.0,11.0,-100.00,East,83,4.0,9.0,33,0.00,,,0.00,228.000000,,2013-05-03 15:22:00,
2013-05-03 09:32:00,38.0,11.0,-100.00,East,83,4.0,9.0,33,0.00,,,0.00,228.000000,,2013-05-03 15:32:00,
2013-05-03 09:43:00,38.0,11.0,-100.00,East,83,4.0,9.0,33,0.00,,,0.00,228.000000,,2013-05-03 15:43:00,
2013-05-03 09:52:00,44.0,13.0,-100.00,NW,305,1.0,8.0,28,0.00,,,0.00,382.000000,,2013-05-03 15:52:00,
2013-05-03 10:12:00,44.0,13.0,-100.00,NW,305,1.0,8.0,28,0.00,,,0.00,382.000000,,2013-05-03 16:12:00,
2013-05-03 10:22:00,44.0,13.0,-100.00,NW,305,1.0,8.0,28,0.00,,,0.00,382.000000,,2013-05-03 16:22:00,
2013-05-03 10:32:00,44.0,13.0,-100.00,NW,305,1.0,8.0,28,0.00,,,0.00,382.000000,,2013-05-03 16:32:00,
2013-05-03 10:42:00,44.0,13.0,-100.00,NW,305,1.0,8.0,28,0.00,,,0.00,382.000000,,2013-05-03 16:42:00,
2013-05-03 11:12:00,45.0,12.0,-100.00,West,271,5.0,10.0,26,0.00,,,0.00,423.000000,,2013-05-03 17:12:00,
2013-05-03 11:23:00,45.0,12.0,-100.00,West,271,5.0,10.0,26,0.00,,,0.00,423.000000,,2013-05-03 17:23:00,
2013-05-03 11:32:00,45.0,12.0,-100.00,West,271,5.0,10.0,26,0.00,,,0.00,423.000000,,2013-05-03 17:32:00,
2013-05-03 11:42:00,45.0,12.0,-100.00,West,271,5.0,10.0,26,0.00,,,0.00,423.000000,,2013-05-03 17:42:00,
2013-05-03 11:51:00,45.0,12.0,-100.00,West,271,5.0,10.0,26,0.00,,,0.00,423.000000,,2013-05-03 17:51:00,
2013-05-03 12:21:00,48.0,11.0,-100.00,WSW,250,2.0,10.0,22,0.00,,,0.00,555.000000,,2013-05-03 18:21:00,
2013-05-03 12:31:00,48.0,11.0,-100.00,WSW,250,2.0,10.0,22,0.00,,,0.00,555.000000,,2013-05-03 18:31:00,
2013-05-03 12:42:00,48.0,11.0,-100.00,WSW,250,2.0,10.0,22,0.00,,,0.00,555.000000,,2013-05-03 18:42:00,
2013-05-03 12:51:00,48.0,11.0,-100.00,WSW,250,2.0,10.0,22,0.00,,,0.00,555.000000,,2013-05-03 18:51:00,
2013-05-03 12:52:00,50.0,13.0,-100.00,WSW,250,4.0,9.0,22,0.00,,,-99.99,595.000000,,2013-05-03 18:52:00,
2013-05-03 13:21:00,50.0,13.0,-100.00,WSW,250,4.0,9.0,22,0.00,,,-99.99,595.000000,,2013-05-03 19:21:00,
2013-05-03 13:32:00,50.0,13.0,-100.00,WSW,250,4.0,9.0,22,0.00,,,-99.99,595.000000,,2013-05-03 19:32:00,
2013-05-03 13:41:00,50.0,13.0,-100.00,WSW,250,4.0,9.0,22,0.00,,,-99.99,595.000000,,2013-05-03 19:41:00,
2013-05-03 13:52:00,56.0,13.0,-100.00,SSW,193,3.0,11.0,18,0.00,,,0.00,724.000000,,2013-05-03 19:52:00,
2013-05-03 14:21:00,56.0,13.0,-100.00,SSW,193,3.0,11.0,18,0.00,,,0.00,724.000000,,2013-05-03 20:21:00,
2013-05-03 14:31:00,56.0,13.0,-100.00,SSW,193,3.0,11.0,18,0.00,,,0.00,724.000000,,2013-05-03 20:31:00,
2013-05-03 14:41:00,56.0,13.0,-100.00,SSW,193,3.0,11.0,18,0.00,,,0.00,724.000000,,2013-05-03 20:41:00,
2013-05-03 14:52:00,56.0,12.0,-100.00,SSW,197,3.0,13.0,17,0.00,,,0.00,643.000000,,2013-05-03 20:52:00,
2013-05-03 15:11:00,56.0,12.0,-100.00,SSW,197,3.0,13.0,17,0.00,,,0.00,643.000000,,2013-05-03 21:11:00,
2013-05-03 15:21:00,56.0,12.0,-100.00,SSW,197,3.0,13.0,17,0.00,,,0.00,643.000000,,2013-05-03 21:21:00,
2013-05-03 15:33:00,56.0,12.0,-100.00,SSW,197,3.0,13.0,17,0.00,,,0.00,643.000000,,2013-05-03 21:33:00,
2013-05-03 15:42:00,56.0,12.0,-100.00,SSW,197,3.0,13.0,17,0.00,,,0.00,643.000000,,2013-05-03 21:42:00,
2013-05-03 16:12:00,54.0,7.0,-100.00,WSW,248,5.0,12.0,15,0.00,,,0.00,499.000000,,2013-05-03 22:12:00,
2013-05-03 16:22:00,54.0,7.0,-100.00,WSW,248,5.0,12.0,15,0.00,,,0.00,499.000000,,2013-05-03 22:22:00,
2013-05-03 16:32:00,54.0,7.0,-100.00,WSW,248,5.0,12.0,15,0.00,,,0.00,499.000000,,2013-05-03 22:32:00,
2013-05-03 16:42:00,54.0,7.0,-100.00,WSW,248,5.0,12.0,15,0.00,,,0.00,499.000000,,2013-05-03 22:42:00,
2013-05-03 16:51:00,54.0,7.0,-100.00,WSW,248,5.0,12.0,15,0.00,,,0.00,499.000000,,2013-05-03 22:51:00,
2013-05-03 17:52:00,50.0,13.0,-100.00,NNW,327,9.0,16.0,22,-99.99,,,0.00,268.000000,,2013-05-03 23:52:00,
2013-05-03 18:11:00,50.0,13.0,-100.00,NNW,327,9.0,16.0,22,-99.99,,,0.00,268.000000,,2013-05-04 00:11:00,
2013-05-03 18:22:00,50.0,13.0,-100.00,NNW,327,9.0,16.0,22,-99.99,,,0.00,268.000000,,2013-05-04 00:22:00,
2013-05-03 18:31:00,50.0,13.0,-100.00,NNW,327,9.0,16.0,22,-99.99,,,0.00,268.000000,,2013-05-04 00:31:00,
2013-05-03 18:41:00,50.0,13.0,-100.00,NNW,327,9.0,16.0,22,-99.99,,,0.00,268.000000,,2013-05-04 00:41:00,
2013-05-03 18:52:00,49.0,13.0,-100.00,WSW,240,2.0,17.0,23,0.00,,,0.00,102.000000,,2013-05-04 00:52:00,
2013-05-03 19:21:00,49.0,13.0,-100.00,WSW,240,2.0,17.0,23,0.00,,,0.00,102.000000,,2013-05-04 01:21:00,
2013-05-03 19:31:00,49.0,13.0,-100.00,WSW,240,2.0,17.0,23,0.00,,,0.00,102.000000,,2013-05-04 01:31:00,
2013-05-03 19:41:00,49.0,13.0,-100.00,WSW,240,2.0,17.0,23,0.00,,,0.00,102.000000,,2013-05-04 01:41:00,
2013-05-03 19:52:00,45.0,15.0,-100.00,East,93,0.0,11.0,29,0.00,,,0.00,55.000000,,2013-05-04 01:52:00,
2013-05-03 20:21:00,45.0,15.0,-100.00,East,93,0.0,11.0,29,0.00,,,0.00,55.000000,,2013-05-04 02:21:00,
2013-05-03 20:32:00,45.0,15.0,-100.00,East,93,0.0,11.0,29,0.00,,,0.00,55.000000,,2013-05-04 02:32:00,
2013-05-03 20:41:00,45.0,15.0,-100.00,East,93,0.0,11.0,29,0.00,,,0.00,55.000000,,2013-05-04 02:41:00,
2013-05-03 20:52:00,41.0,15.0,-100.00,ENE,64,0.0,5.0,34,0.00,,,0.00,7.000000,,2013-05-04 02:52:00,
2013-05-03 21:21:00,41.0,15.0,-100.00,ENE,64,0.0,5.0,34,0.00,,,0.00,7.000000,,2013-05-04 03:21:00,
2013-05-03 21:32:00,41.0,15.0,-100.00,ENE,64,0.0,5.0,34,0.00,,,0.00,7.000000,,2013-05-04 03:32:00,
2013-05-03 21:43:00,41.0,15.0,-100.00,ENE,64,0.0,5.0,34,0.00,,,0.00,7.000000,,2013-05-04 03:43:00,
2013-05-03 21:52:00,40.0,17.0,-100.00,ENE,68,4.0,8.0,39,0.00,,,0.00,0.000000,,2013-05-04 03:52:00,
2013-05-03 22:12:00,40.0,17.0,-100.00,ENE,68,4.0,8.0,39,0.00,,,0.00,0.000000,,2013-05-04 04:12:00,
2013-05-03 22:22:00,40.0,17.0,-100.00,ENE,68,4.0,8.0,39,0.00,,,0.00,0.000000,,2013-05-04 04:22:00,
2013-05-03 22:32:00,40.0,17.0,-100.00,ENE,68,4.0,8.0,39,0.00,,,0.00,0.000000,,2013-05-04 04:32:00,
2013-05-03 22:42:00,40.0,17.0,-100.00,ENE,68,4.0,8.0,39,0.00,,,0.00,0.000000,,2013-05-04 04:42:00,
2013-05-03 23:22:00,39.0,20.0,-100.00,ENE,59,1.0,8.0,46,0.00,,,0.00,0.000000,,2013-05-04 05:22:00,
2013-05-03 23:32:00,39.0,20.0,-100.00,ENE,59,1.0,8.0,46,0.00,,,0.00,0.000000,,2013-05-04 05:32:00,
2013-05-03 23:42:00,39.0,20.0,-100.00,ENE,59,1.0,8.0,46,0.00,,,0.00,0.000000,,2013-05-04 05:42:00,
2013-05-03 23:51:00,39.0,20.0,-100.00,ENE,59,1.0,8.0,46,0.00,,,0.00,0.000000,,2013-05-04 05:51:00,